Wetterdaten: Woche 11.02.19 - 17.02.19 (KW7)
Datum Zeit Temp. 2m rel. Feuchte Luftdruck Regen Wind Richtung Sonne ET UV-Index Solar Taupunkt Ben
11.02.2019 00:00 3,8 C 95 % 1004,5 hPa 1,0 mm 10,4 km/h (2 Bft) NW 0,00 h 0,0 mm 0,0 UV-I 0 W/m 3,1 C 30,9 km/h (5 Bft)
11.02.2019 01:00 3,7 C 95 % 1006,2 hPa 1,0 mm 10,9 km/h (2 Bft) N-NW 0,00 h 0,0 mm 0,0 UV-I 0 W/m 2,9 C 32,8 km/h (5 Bft)
11.02.2019 02:00 3,3 C 95 % 1007,7 hPa 1,0 mm 5,5 km/h (1 Bft) NW 0,00 h 0,0 mm 0,0 UV-I 0 W/m 2,6 C 19,4 km/h (3 Bft)
11.02.2019 03:00 3,6 C 96 % 1008,6 hPa 0,0 mm 10,8 km/h (2 Bft) W-NW 0,00 h 0,0 mm 0,0 UV-I 0 W/m 3,0 C 27,4 km/h (4 Bft)
11.02.2019 04:00 4,0 C 94 % 1009,7 hPa 0,0 mm 12,5 km/h (3 Bft) NW 0,00 h 0,0 mm 0,0 UV-I 0 W/m 3,1 C 29,8 km/h (5 Bft)
11.02.2019 05:00 4,5 C 91 % 1010,9 hPa 0,0 mm 11,9 km/h (2 Bft) W-NW 0,00 h 0,0 mm 0,0 UV-I 0 W/m 3,1 C 29,6 km/h (5 Bft)
11.02.2019 06:00 4,4 C 90 % 1012,0 hPa 0,0 mm 13,0 km/h (3 Bft) NW 0,00 h 0,0 mm 0,0 UV-I 0 W/m 2,9 C 28,1 km/h (4 Bft)
11.02.2019 07:00 4,3 C 89 % 1013,1 hPa 0,0 mm 18,9 km/h (3 Bft) NW 0,00 h 0,0 mm 0,0 UV-I 0 W/m 2,6 C 36,5 km/h (5 Bft)
11.02.2019 08:00 4,3 C 89 % 1014,8 hPa 0,0 mm 15,7 km/h (3 Bft) NW 0,00 h 0,0 mm 0,0 UV-I 21 W/m 2,7 C 32,9 km/h (5 Bft)
11.02.2019 09:00 4,4 C 89 % 1015,8 hPa 0,0 mm 17,8 km/h (3 Bft) NW 0,17 h 0,0 mm 0,6 UV-I 96 W/m 2,8 C 33,1 km/h (5 Bft)
11.02.2019 10:00 5,0 C 87 % 1017,0 hPa 0,0 mm 14,1 km/h (3 Bft) NW 0,42 h 0,1 mm 0,8 UV-I 234 W/m 3,0 C 29,6 km/h (5 Bft)
11.02.2019 11:00 6,3 C 84 % 1018,0 hPa 0,0 mm 11,0 km/h (2 Bft) NW 0,50 h 0,1 mm 1,0 UV-I 299 W/m 3,7 C 29,8 km/h (5 Bft)
11.02.2019 12:00 6,6 C 82 % 1018,9 hPa 0,0 mm 11,0 km/h (2 Bft) NW 0,17 h 0,1 mm 0,9 UV-I 203 W/m 3,7 C 26,7 km/h (4 Bft)
11.02.2019 13:00 6,7 C 82 % 1019,8 hPa 0,0 mm 9,4 km/h (2 Bft) NW 0,08 h 0,1 mm 0,7 UV-I 86 W/m 3,8 C 28,5 km/h (4 Bft)
11.02.2019 14:00 6,6 C 83 % 1020,9 hPa 0,0 mm 6,8 km/h (2 Bft) NW 0,00 h 0,1 mm 0,7 UV-I 118 W/m 4,0 C 20,7 km/h (4 Bft)
11.02.2019 15:00 6,3 C 83 % 1022,3 hPa 0,0 mm 4,5 km/h (1 Bft) N-NW 0,08 h 0,1 mm 0,5 UV-I 83 W/m 3,7 C 16,9 km/h (3 Bft)
11.02.2019 16:00 5,9 C 79 % 1023,1 hPa 0,0 mm 3,1 km/h (1 Bft) NW 0,17 h 0,0 mm 0,5 UV-I 73 W/m 2,6 C 11,1 km/h (2 Bft)
11.02.2019 17:00 5,4 C 82 % 1024,6 hPa 0,0 mm 1,5 km/h (1 Bft) N-NW 0,00 h 0,0 mm 0,0 UV-I 13 W/m 2,6 C 8,0 km/h (2 Bft)
11.02.2019 18:00 4,8 C 82 % 1026,2 hPa 0,0 mm 0,4 km/h (0 Bft) N 0,00 h 0,0 mm 0,0 UV-I 0 W/m 2,0 C 3,1 km/h (1 Bft)
11.02.2019 19:00 4,1 C 81 % 1027,3 hPa 0,0 mm 0,1 km/h (0 Bft) N 0,00 h 0,0 mm 0,0 UV-I 0 W/m 1,2 C 1,8 km/h (1 Bft)
11.02.2019 20:00 3,2 C 83 % 1028,0 hPa 0,0 mm 0,2 km/h (0 Bft) N 0,00 h 0,0 mm 0,0 UV-I 0 W/m 0,5 C 3,1 km/h (1 Bft)
11.02.2019 21:00 2,6 C 86 % 1028,8 hPa 0,0 mm 0,4 km/h (0 Bft) NW 0,00 h 0,0 mm 0,0 UV-I 0 W/m 0,6 C 4,4 km/h (1 Bft)
11.02.2019 22:00 2,8 C 86 % 1029,7 hPa 0,0 mm 0,3 km/h (0 Bft) NW 0,00 h 0,0 mm 0,0 UV-I 0 W/m 0,8 C 2,9 km/h (1 Bft)
11.02.2019 23:00 2,6 C 88 % 1030,2 hPa 0,0 mm 2,2 km/h (1 Bft) NW 0,00 h 0,0 mm 0,0 UV-I 0 W/m 0,8 C 8,5 km/h (2 Bft)
12.02.2019 00:00 2,2 C 89 % 1030,7 hPa 0,0 mm 5,3 km/h (1 Bft) NW 0,00 h 0,0 mm 0,0 UV-I 0 W/m 0,6 C 10,4 km/h (2 Bft)
12.02.2019 01:00 2,0 C 90 % 1031,5 hPa 0,0 mm 6,4 km/h (2 Bft) NW 0,00 h 0,0 mm 0,0 UV-I 0 W/m 0,5 C 12,2 km/h (2 Bft)
12.02.2019 02:00 2,2 C 90 % 1031,9 hPa 0,0 mm 8,9 km/h (2 Bft) NW 0,00 h 0,0 mm 0,0 UV-I 0 W/m 0,8 C 17,4 km/h (3 Bft)
12.02.2019 03:00 1,9 C 91 % 1032,0 hPa 0,0 mm 5,3 km/h (1 Bft) W-NW 0,00 h 0,0 mm 0,0 UV-I 0 W/m 0,6 C 10,0 km/h (2 Bft)
12.02.2019 04:00 1,7 C 93 % 1032,2 hPa 0,0 mm 9,4 km/h (2 Bft) NW 0,00 h 0,0 mm 0,0 UV-I 0 W/m 0,6 C 17,1 km/h (3 Bft)
12.02.2019 05:00 1,6 C 94 % 1032,4 hPa 0,0 mm 6,1 km/h (2 Bft) NW 0,00 h 0,0 mm 0,0 UV-I 0 W/m 0,7 C 11,5 km/h (2 Bft)
12.02.2019 06:00 1,3 C 94 % 1032,6 hPa 0,0 mm 5,5 km/h (1 Bft) NW 0,00 h 0,0 mm 0,0 UV-I 0 W/m 0,5 C 10,9 km/h (2 Bft)
12.02.2019 07:00 1,4 C 94 % 1032,6 hPa 0,0 mm 6,1 km/h (2 Bft) NW 0,00 h 0,0 mm 0,0 UV-I 0 W/m 0,5 C 13,1 km/h (3 Bft)
12.02.2019 08:00 1,7 C 94 % 1033,1 hPa 0,0 mm 7,4 km/h (2 Bft) NW 0,17 h 0,0 mm 0,2 UV-I 42 W/m 0,8 C 15,0 km/h (3 Bft)
12.02.2019 09:00 2,6 C 92 % 1034,2 hPa 0,0 mm 5,2 km/h (1 Bft) W-NW 0,00 h 0,0 mm 0,5 UV-I 86 W/m 1,5 C 11,3 km/h (2 Bft)
12.02.2019 10:00 3,5 C 90 % 1034,6 hPa 0,0 mm 5,2 km/h (1 Bft) NW 0,08 h 0,0 mm 0,7 UV-I 128 W/m 2,1 C 12,6 km/h (3 Bft)
12.02.2019 11:00 4,2 C 89 % 1034,8 hPa 0,0 mm 9,1 km/h (2 Bft) NW 0,00 h 0,1 mm 0,8 UV-I 186 W/m 2,5 C 20,4 km/h (4 Bft)
12.02.2019 12:00 5,1 C 86 % 1034,7 hPa 0,0 mm 11,6 km/h (2 Bft) NW 0,00 h 0,1 mm 0,9 UV-I 184 W/m 2,9 C 24,1 km/h (4 Bft)
12.02.2019 13:00 5,9 C 83 % 1034,6 hPa 0,0 mm 9,5 km/h (2 Bft) W 0,25 h 0,1 mm 1,0 UV-I 223 W/m 3,2 C 19,4 km/h (3 Bft)
12.02.2019 14:00 7,3 C 73 % 1034,5 hPa 0,0 mm 10,4 km/h (2 Bft) NW 1,00 h 0,1 mm 1,2 UV-I 352 W/m 2,7 C 22,0 km/h (4 Bft)
12.02.2019 15:00 7,8 C 70 % 1034,6 hPa 0,0 mm 10,1 km/h (2 Bft) NW 0,92 h 0,2 mm 0,9 UV-I 254 W/m 2,7 C 22,4 km/h (4 Bft)
12.02.2019 16:00 7,4 C 75 % 1034,7 hPa 0,0 mm 7,4 km/h (2 Bft) W-NW 0,67 h 0,1 mm 0,4 UV-I 121 W/m 3,2 C 16,5 km/h (3 Bft)
12.02.2019 17:00 6,7 C 78 % 1034,8 hPa 0,0 mm 3,5 km/h (1 Bft) W 0,08 h 0,1 mm 0,0 UV-I 21 W/m 3,1 C 10,0 km/h (2 Bft)
12.02.2019 18:00 5,9 C 80 % 1035,1 hPa 0,0 mm 2,0 km/h (1 Bft) W-SW 0,00 h 0,0 mm 0,0 UV-I 0 W/m 2,7 C 6,3 km/h (2 Bft)
12.02.2019 19:00 5,1 C 83 % 1035,3 hPa 0,0 mm 0,8 km/h (0 Bft) W 0,00 h 0,0 mm 0,0 UV-I 0 W/m 2,4 C 4,0 km/h (1 Bft)
12.02.2019 20:00 4,6 C 83 % 1035,4 hPa 0,0 mm 0,4 km/h (0 Bft) W-SW 0,00 h 0,0 mm 0,0 UV-I 0 W/m 2,0 C 2,8 km/h (1 Bft)
12.02.2019 21:00 3,7 C 84 % 1035,4 hPa 0,0 mm 0,2 km/h (0 Bft) N 0,00 h 0,0 mm 0,0 UV-I 0 W/m 1,3 C 1,7 km/h (1 Bft)
12.02.2019 22:00 2,7 C 87 % 1035,6 hPa 0,0 mm 0,4 km/h (0 Bft) W-SW 0,00 h 0,0 mm 0,0 UV-I 0 W/m 0,8 C 2,2 km/h (1 Bft)
12.02.2019 23:00 2,3 C 88 % 1036,3 hPa 0,0 mm 0,9 km/h (0 Bft) W-SW 0,00 h 0,0 mm 0,0 UV-I 0 W/m 0,5 C 3,9 km/h (1 Bft)
13.02.2019 00:00 2,0 C 89 % 1036,4 hPa 0,0 mm 1,1 km/h (1 Bft) W-SW 0,00 h 0,0 mm 0,0 UV-I 0 W/m 0,4 C 4,0 km/h (1 Bft)
13.02.2019 01:00 2,0 C 89 % 1036,4 hPa 0,0 mm 1,4 km/h (1 Bft) S-SW 0,00 h 0,0 mm 0,0 UV-I 0 W/m 0,4 C 5,5 km/h (1 Bft)
13.02.2019 02:00 1,8 C 89 % 1036,7 hPa 0,0 mm 1,5 km/h (1 Bft) S 0,00 h 0,0 mm 0,0 UV-I 0 W/m 0,2 C 7,0 km/h (2 Bft)
13.02.2019 03:00 1,6 C 90 % 1036,4 hPa 0,0 mm 3,0 km/h (1 Bft) S 0,00 h 0,0 mm 0,0 UV-I 0 W/m 0,1 C 8,1 km/h (2 Bft)
13.02.2019 04:00 1,3 C 90 % 1036,1 hPa 0,0 mm 2,1 km/h (1 Bft) S 0,00 h 0,0 mm 0,0 UV-I 0 W/m -0,2 C 6,3 km/h (2 Bft)
13.02.2019 05:00 0,9 C 90 % 1036,1 hPa 0,0 mm 2,5 km/h (1 Bft) S-SW 0,00 h 0,0 mm 0,0 UV-I 0 W/m -0,6 C 7,4 km/h (2 Bft)
13.02.2019 06:00 0,8 C 91 % 1036,2 hPa 0,0 mm 3,8 km/h (1 Bft) S-SW 0,00 h 0,0 mm 0,0 UV-I 0 W/m -0,6 C 9,8 km/h (2 Bft)
13.02.2019 07:00 0,5 C 90 % 1036,4 hPa 0,0 mm 2,9 km/h (1 Bft) S-SO 0,00 h 0,0 mm 0,0 UV-I 6 W/m -0,8 C 7,2 km/h (2 Bft)
13.02.2019 08:00 0,4 C 93 % 1037,0 hPa 0,0 mm 4,2 km/h (1 Bft) S-SO 0,08 h 0,0 mm 0,3 UV-I 42 W/m -0,7 C 8,9 km/h (2 Bft)
13.02.2019 09:00 1,4 C 93 % 1037,2 hPa 0,0 mm 4,8 km/h (1 Bft) SO 1,00 h 0,0 mm 0,4 UV-I 221 W/m 0,3 C 10,6 km/h (2 Bft)
13.02.2019 10:00 3,1 C 87 % 1037,1 hPa 0,0 mm 4,5 km/h (1 Bft) SO 1,00 h 0,1 mm 0,8 UV-I 320 W/m 1,2 C 12,0 km/h (2 Bft)
13.02.2019 11:00 5,6 C 79 % 1037,0 hPa 0,0 mm 4,9 km/h (1 Bft) S-SO 1,00 h 0,1 mm 1,3 UV-I 392 W/m 2,3 C 12,9 km/h (3 Bft)
13.02.2019 12:00 6,6 C 74 % 1036,9 hPa 0,0 mm 5,0 km/h (1 Bft) S 0,67 h 0,1 mm 1,3 UV-I 263 W/m 2,2 C 12,4 km/h (3 Bft)
13.02.2019 13:00 7,7 C 71 % 1036,7 hPa 0,0 mm 2,6 km/h (1 Bft) S-SO 1,00 h 0,1 mm 1,6 UV-I 327 W/m 2,8 C 8,0 km/h (2 Bft)
13.02.2019 14:00 8,8 C 67 % 1036,4 hPa 0,0 mm 1,6 km/h (1 Bft) S 1,00 h 0,1 mm 1,4 UV-I 330 W/m 3,1 C 6,5 km/h (2 Bft)
13.02.2019 15:00 9,0 C 66 % 1035,9 hPa 0,0 mm 2,7 km/h (1 Bft) SO 1,00 h 0,1 mm 0,6 UV-I 233 W/m 3,1 C 9,3 km/h (2 Bft)
13.02.2019 16:00 8,6 C 68 % 1035,6 hPa 0,0 mm 2,2 km/h (1 Bft) S 0,42 h 0,1 mm 0,4 UV-I 94 W/m 3,0 C 8,2 km/h (2 Bft)
13.02.2019 17:00 7,9 C 70 % 1036,0 hPa 0,0 mm 0,8 km/h (0 Bft) S-SO 0,00 h 0,1 mm 0,0 UV-I 19 W/m 2,8 C 4,1 km/h (1 Bft)
13.02.2019 18:00 6,7 C 75 % 1036,1 hPa 0,0 mm 0,7 km/h (0 Bft) S-SO 0,00 h 0,0 mm 0,0 UV-I 0 W/m 2,6 C 3,5 km/h (1 Bft)
13.02.2019 19:00 5,4 C 79 % 1036,3 hPa 0,0 mm 0,2 km/h (0 Bft) S-SO 0,00 h 0,0 mm 0,0 UV-I 0 W/m 2,1 C 0,4 km/h (0 Bft)
13.02.2019 20:00 4,5 C 83 % 1036,1 hPa 0,0 mm 1,0 km/h (0 Bft) SO 0,00 h 0,0 mm 0,0 UV-I 0 W/m 1,9 C 3,3 km/h (1 Bft)
13.02.2019 21:00 4,1 C 83 % 1036,1 hPa 0,0 mm 2,2 km/h (1 Bft) S-SO 0,00 h 0,0 mm 0,0 UV-I 0 W/m 1,5 C 6,3 km/h (2 Bft)
13.02.2019 22:00 3,6 C 85 % 1036,0 hPa 0,0 mm 2,2 km/h (1 Bft) S 0,00 h 0,0 mm 0,0 UV-I 0 W/m 1,2 C 7,2 km/h (2 Bft)
13.02.2019 23:00 3,0 C 87 % 1035,7 hPa 0,0 mm 2,9 km/h (1 Bft) SO 0,00 h 0,0 mm 0,0 UV-I 0 W/m 1,0 C 6,5 km/h (2 Bft)
14.02.2019 00:00 2,5 C 88 % 1035,7 hPa 0,0 mm 2,8 km/h (1 Bft) S-SO 0,00 h 0,0 mm 0,0 UV-I 0 W/m 0,7 C 7,4 km/h (2 Bft)
14.02.2019 01:00 2,0 C 89 % 1035,9 hPa 0,0 mm 2,2 km/h (1 Bft) S-SO 0,00 h 0,0 mm 0,0 UV-I 0 W/m 0,4 C 6,9 km/h (2 Bft)
14.02.2019 02:00 1,6 C 90 % 1035,8 hPa 0,0 mm 1,8 km/h (1 Bft) S-SO 0,00 h 0,0 mm 0,0 UV-I 0 W/m 0,2 C 5,9 km/h (2 Bft)
14.02.2019 03:00 1,3 C 90 % 1035,7 hPa 0,0 mm 2,0 km/h (1 Bft) S 0,00 h 0,0 mm 0,0 UV-I 0 W/m -0,1 C 6,8 km/h (2 Bft)
14.02.2019 04:00 0,9 C 90 % 1035,7 hPa 0,0 mm 1,5 km/h (1 Bft) S-SO 0,00 h 0,0 mm 0,0 UV-I 0 W/m -0,5 C 4,4 km/h (1 Bft)
14.02.2019 05:00 0,5 C 91 % 1036,0 hPa 0,0 mm 2,7 km/h (1 Bft) S-SO 0,00 h 0,0 mm 0,0 UV-I 0 W/m -0,8 C 7,6 km/h (2 Bft)
14.02.2019 06:00 0,3 C 92 % 1036,2 hPa 0,0 mm 3,0 km/h (1 Bft) S 0,00 h 0,0 mm 0,0 UV-I 0 W/m -0,8 C 8,9 km/h (2 Bft)
14.02.2019 07:00 0,1 C 93 % 1036,4 hPa 0,0 mm 2,4 km/h (1 Bft) S-SO 0,00 h 0,0 mm 0,0 UV-I 4 W/m -0,9 C 7,0 km/h (2 Bft)
14.02.2019 08:00 0,1 C 93 % 1036,9 hPa 0,0 mm 2,8 km/h (1 Bft) S 0,08 h 0,0 mm 0,2 UV-I 40 W/m -0,9 C 7,5 km/h (2 Bft)
14.02.2019 09:00 1,3 C 91 % 1036,9 hPa 0,0 mm 4,1 km/h (1 Bft) S-SO 1,00 h 0,0 mm 0,4 UV-I 228 W/m 0,0 C 11,3 km/h (2 Bft)
14.02.2019 10:00 3,6 C 85 % 1036,8 hPa 0,0 mm 5,2 km/h (1 Bft) SO 1,00 h 0,1 mm 0,8 UV-I 363 W/m 1,3 C 15,0 km/h (3 Bft)
14.02.2019 11:00 6,4 C 74 % 1036,7 hPa 0,0 mm 6,0 km/h (2 Bft) SO 1,00 h 0,1 mm 1,3 UV-I 449 W/m 2,0 C 14,8 km/h (3 Bft)
14.02.2019 12:00 9,0 C 62 % 1036,5 hPa 0,0 mm 4,7 km/h (1 Bft) SO 0,92 h 0,2 mm 1,8 UV-I 418 W/m 2,1 C 11,8 km/h (2 Bft)
14.02.2019 13:00 11,0 C 52 % 1035,7 hPa 0,0 mm 3,7 km/h (1 Bft) S-SO 1,00 h 0,2 mm 2,0 UV-I 431 W/m 1,6 C 10,2 km/h (2 Bft)
14.02.2019 14:00 12,6 C 45 % 1035,0 hPa 0,0 mm 4,7 km/h (1 Bft) S-SO 1,00 h 0,2 mm 1,4 UV-I 289 W/m 1,1 C 11,3 km/h (2 Bft)
14.02.2019 15:00 13,2 C 41 % 1034,7 hPa 0,0 mm 3,8 km/h (1 Bft) S-SO 0,92 h 0,2 mm 0,6 UV-I 248 W/m 0,3 C 9,8 km/h (2 Bft)
14.02.2019 16:00 12,4 C 44 % 1034,2 hPa 0,0 mm 2,7 km/h (1 Bft) S-SO 0,67 h 0,1 mm 0,4 UV-I 143 W/m 0,6 C 8,1 km/h (2 Bft)
14.02.2019 17:00 10,9 C 51 % 1034,0 hPa 0,0 mm 0,5 km/h (0 Bft) S-SO 0,33 h 0,1 mm 0,0 UV-I 24 W/m 1,1 C 1,5 km/h (1 Bft)
14.02.2019 18:00 7,8 C 61 % 1034,1 hPa 0,0 mm 0,1 km/h (0 Bft) N 0,00 h 0,0 mm 0,0 UV-I 1 W/m 0,7 C 1,3 km/h (1 Bft)
14.02.2019 19:00 6,0 C 64 % 1034,3 hPa 0,0 mm 1,1 km/h (1 Bft) S-SO 0,00 h 0,0 mm 0,0 UV-I 0 W/m -0,2 C 4,4 km/h (1 Bft)
14.02.2019 20:00 5,8 C 64 % 1034,2 hPa 0,0 mm 2,3 km/h (1 Bft) SO 0,00 h 0,0 mm 0,0 UV-I 0 W/m -0,5 C 5,7 km/h (1 Bft)
14.02.2019 21:00 6,3 C 63 % 1034,1 hPa 0,0 mm 3,0 km/h (1 Bft) S 0,00 h 0,0 mm 0,0 UV-I 0 W/m -0,2 C 7,2 km/h (2 Bft)
14.02.2019 22:00 5,4 C 67 % 1034,0 hPa 0,0 mm 2,6 km/h (1 Bft) S-SO 0,00 h 0,0 mm 0,0 UV-I 0 W/m -0,3 C 6,5 km/h (2 Bft)
14.02.2019 23:00 4,7 C 69 % 1034,0 hPa 0,0 mm 1,7 km/h (1 Bft) S-SO 0,00 h 0,0 mm 0,0 UV-I 0 W/m -0,5 C 5,0 km/h (1 Bft)
15.02.2019 00:00 4,0 C 72 % 1034,1 hPa 0,0 mm 0,1 km/h (0 Bft) S 0,00 h 0,0 mm 0,0 UV-I 0 W/m -0,6 C 0,7 km/h (0 Bft)
15.02.2019 01:00 3,5 C 73 % 1034,0 hPa 0,0 mm 1,1 km/h (1 Bft) S 0,00 h 0,0 mm 0,0 UV-I 0 W/m -0,8 C 5,2 km/h (1 Bft)
15.02.2019 02:00 2,2 C 78 % 1033,8 hPa 0,0 mm 0,0 km/h (0 Bft) N 0,00 h 0,0 mm 0,0 UV-I 0 W/m -1,3 C 0,9 km/h (0 Bft)
15.02.2019 03:00 1,2 C 82 % 1033,4 hPa 0,0 mm 0,7 km/h (0 Bft) S 0,00 h 0,0 mm 0,0 UV-I 0 W/m -1,5 C 2,8 km/h (1 Bft)
15.02.2019 04:00 1,8 C 80 % 1033,2 hPa 0,0 mm 3,9 km/h (1 Bft) S-SO 0,00 h 0,0 mm 0,0 UV-I 0 W/m -1,2 C 8,7 km/h (2 Bft)
15.02.2019 05:00 2,5 C 77 % 1033,0 hPa 0,0 mm 3,0 km/h (1 Bft) S-SO 0,00 h 0,0 mm 0,0 UV-I 0 W/m -1,1 C 9,1 km/h (2 Bft)
15.02.2019 06:00 2,4 C 77 % 1032,9 hPa 0,0 mm 4,0 km/h (1 Bft) S-SO 0,00 h 0,0 mm 0,0 UV-I 0 W/m -1,2 C 10,2 km/h (2 Bft)
15.02.2019 07:00 2,4 C 77 % 1033,0 hPa 0,0 mm 1,9 km/h (1 Bft) S-SO 0,00 h 0,0 mm 0,0 UV-I 6 W/m -1,3 C 5,5 km/h (1 Bft)
15.02.2019 08:00 2,5 C 78 % 1033,3 hPa 0,0 mm 3,6 km/h (1 Bft) SO 1,00 h 0,0 mm 0,2 UV-I 72 W/m -0,9 C 10,0 km/h (2 Bft)
15.02.2019 09:00 4,6 C 73 % 1033,0 hPa 0,0 mm 7,2 km/h (2 Bft) S-SO 1,00 h 0,0 mm 0,4 UV-I 237 W/m 0,1 C 17,2 km/h (3 Bft)
15.02.2019 10:00 7,3 C 64 % 1032,7 hPa 0,0 mm 9,1 km/h (2 Bft) SO 1,00 h 0,1 mm 1,0 UV-I 370 W/m 1,0 C 23,5 km/h (4 Bft)
15.02.2019 11:00 10,2 C 56 % 1032,5 hPa 0,0 mm 9,3 km/h (2 Bft) O 1,00 h 0,2 mm 1,7 UV-I 464 W/m 1,7 C 21,8 km/h (4 Bft)
15.02.2019 12:00 12,9 C 48 % 1032,0 hPa 0,0 mm 9,3 km/h (2 Bft) O 1,00 h 0,2 mm 2,4 UV-I 507 W/m 2,1 C 22,0 km/h (4 Bft)
15.02.2019 13:00 15,2 C 44 % 1031,1 hPa 0,0 mm 8,3 km/h (2 Bft) O 1,00 h 0,3 mm 2,4 UV-I 498 W/m 2,8 C 20,7 km/h (4 Bft)
15.02.2019 14:00 17,4 C 38 % 1030,2 hPa 0,0 mm 8,2 km/h (2 Bft) O 1,00 h 0,3 mm 1,6 UV-I 434 W/m 2,8 C 18,9 km/h (3 Bft)
15.02.2019 15:00 17,1 C 37 % 1029,5 hPa 0,0 mm 9,5 km/h (2 Bft) O 1,00 h 0,3 mm 0,3 UV-I 325 W/m 2,4 C 22,0 km/h (4 Bft)
15.02.2019 16:00 15,6 C 39 % 1028,9 hPa 0,0 mm 8,4 km/h (2 Bft) O 0,92 h 0,2 mm 0,4 UV-I 177 W/m 1,8 C 19,4 km/h (3 Bft)
15.02.2019 17:00 14,2 C 42 % 1028,4 hPa 0,0 mm 6,7 km/h (2 Bft) O 0,25 h 0,1 mm 0,0 UV-I 23 W/m 1,6 C 15,3 km/h (3 Bft)
15.02.2019 18:00 12,5 C 48 % 1028,3 hPa 0,0 mm 6,4 km/h (2 Bft) O 0,00 h 0,1 mm 0,0 UV-I 0 W/m 1,8 C 13,7 km/h (3 Bft)
15.02.2019 19:00 10,8 C 54 % 1028,3 hPa 0,0 mm 2,7 km/h (1 Bft) S-SO 0,00 h 0,0 mm 0,0 UV-I 0 W/m 1,8 C 8,0 km/h (2 Bft)
15.02.2019 20:00 9,2 C 60 % 1028,1 hPa 0,0 mm 4,9 km/h (1 Bft) S-SO 0,00 h 0,0 mm 0,0 UV-I 0 W/m 1,9 C 10,0 km/h (2 Bft)
15.02.2019 21:00 8,6 C 62 % 1027,8 hPa 0,0 mm 6,8 km/h (2 Bft) SO 0,00 h 0,0 mm 0,0 UV-I 0 W/m 1,7 C 15,9 km/h (3 Bft)
15.02.2019 22:00 8,1 C 62 % 1027,9 hPa 0,0 mm 3,6 km/h (1 Bft) S 0,00 h 0,0 mm 0,0 UV-I 0 W/m 1,3 C 10,5 km/h (2 Bft)
15.02.2019 23:00 6,6 C 67 % 1027,7 hPa 0,0 mm 0,7 km/h (0 Bft) S-SW 0,00 h 0,0 mm 0,0 UV-I 0 W/m 0,9 C 3,3 km/h (1 Bft)
16.02.2019 00:00 4,5 C 74 % 1027,4 hPa 0,0 mm 0,6 km/h (0 Bft) S 0,00 h 0,0 mm 0,0 UV-I 0 W/m 0,3 C 3,7 km/h (1 Bft)
16.02.2019 01:00 4,4 C 76 % 1027,2 hPa 0,0 mm 1,7 km/h (1 Bft) S 0,00 h 0,0 mm 0,0 UV-I 0 W/m 0,6 C 5,2 km/h (1 Bft)
16.02.2019 02:00 4,9 C 73 % 1026,9 hPa 0,0 mm 2,5 km/h (1 Bft) S 0,00 h 0,0 mm 0,0 UV-I 0 W/m 0,6 C 8,2 km/h (2 Bft)
16.02.2019 03:00 4,8 C 74 % 1026,6 hPa 0,0 mm 4,3 km/h (1 Bft) S 0,00 h 0,0 mm 0,0 UV-I 0 W/m 0,6 C 10,7 km/h (2 Bft)
16.02.2019 04:00 4,1 C 77 % 1026,3 hPa 0,0 mm 1,4 km/h (1 Bft) S 0,00 h 0,0 mm 0,0 UV-I 0 W/m 0,5 C 5,2 km/h (1 Bft)
16.02.2019 05:00 3,2 C 81 % 1026,1 hPa 0,0 mm 1,9 km/h (1 Bft) S 0,00 h 0,0 mm 0,0 UV-I 0 W/m 0,2 C 6,3 km/h (2 Bft)
16.02.2019 06:00 3,3 C 82 % 1026,0 hPa 0,0 mm 3,3 km/h (1 Bft) S-SO 0,00 h 0,0 mm 0,0 UV-I 0 W/m 0,4 C 9,3 km/h (2 Bft)
16.02.2019 07:00 3,1 C 82 % 1026,1 hPa 0,0 mm 3,0 km/h (1 Bft) S 0,00 h 0,0 mm 0,0 UV-I 7 W/m 0,3 C 8,0 km/h (2 Bft)
16.02.2019 08:00 3,1 C 83 % 1026,6 hPa 0,0 mm 2,9 km/h (1 Bft) S 0,33 h 0,0 mm 0,2 UV-I 58 W/m 0,5 C 9,1 km/h (2 Bft)
16.02.2019 09:00 4,8 C 79 % 1026,8 hPa 0,0 mm 2,4 km/h (1 Bft) S 1,00 h 0,0 mm 0,4 UV-I 243 W/m 1,5 C 8,0 km/h (2 Bft)
16.02.2019 10:00 7,6 C 70 % 1026,6 hPa 0,0 mm 5,0 km/h (1 Bft) S-SO 1,00 h 0,1 mm 0,9 UV-I 375 W/m 2,5 C 13,3 km/h (3 Bft)
16.02.2019 11:00 10,4 C 62 % 1026,8 hPa 0,0 mm 4,3 km/h (1 Bft) O 1,00 h 0,2 mm 1,7 UV-I 465 W/m 3,5 C 10,6 km/h (2 Bft)
16.02.2019 12:00 13,2 C 52 % 1026,6 hPa 0,0 mm 3,8 km/h (1 Bft) O 1,00 h 0,2 mm 2,5 UV-I 506 W/m 3,6 C 8,9 km/h (2 Bft)
16.02.2019 13:00 15,2 C 45 % 1026,1 hPa 0,0 mm 2,2 km/h (1 Bft) S-SO 1,00 h 0,2 mm 2,3 UV-I 498 W/m 3,3 C 7,0 km/h (2 Bft)
16.02.2019 14:00 16,9 C 40 % 1025,7 hPa 0,0 mm 2,9 km/h (1 Bft) S-SW 1,00 h 0,2 mm 1,3 UV-I 450 W/m 3,2 C 9,6 km/h (2 Bft)
16.02.2019 15:00 16,8 C 40 % 1025,5 hPa 0,0 mm 1,9 km/h (1 Bft) S-SW 1,00 h 0,2 mm 0,4 UV-I 318 W/m 3,1 C 7,6 km/h (2 Bft)
16.02.2019 16:00 15,1 C 49 % 1025,3 hPa 0,0 mm 0,2 km/h (0 Bft) N 0,92 h 0,2 mm 0,3 UV-I 172 W/m 4,4 C 2,4 km/h (1 Bft)
16.02.2019 17:00 12,7 C 59 % 1025,2 hPa 0,0 mm 0,0 km/h (0 Bft) N 0,33 h 0,1 mm 0,0 UV-I 25 W/m 4,7 C 0,0 km/h (0 Bft)
16.02.2019 18:00 9,5 C 68 % 1025,3 hPa 0,0 mm 0,0 km/h (0 Bft) N 0,00 h 0,0 mm 0,0 UV-I 0 W/m 3,9 C 0,0 km/h (0 Bft)
16.02.2019 19:00 8,4 C 71 % 1025,2 hPa 0,0 mm 0,0 km/h (0 Bft) N 0,00 h 0,0 mm 0,0 UV-I 0 W/m 3,4 C 0,6 km/h (0 Bft)
16.02.2019 20:00 7,1 C 76 % 1025,2 hPa 0,0 mm 0,0 km/h (0 Bft) N 0,00 h 0,0 mm 0,0 UV-I 0 W/m 3,2 C 0,0 km/h (0 Bft)
16.02.2019 21:00 5,3 C 82 % 1025,2 hPa 0,0 mm 0,1 km/h (0 Bft) N 0,00 h 0,0 mm 0,0 UV-I 0 W/m 2,5 C 0,6 km/h (0 Bft)
16.02.2019 22:00 5,5 C 81 % 1025,2 hPa 0,0 mm 1,3 km/h (1 Bft) SW 0,00 h 0,0 mm 0,0 UV-I 0 W/m 2,6 C 4,8 km/h (1 Bft)
16.02.2019 23:00 5,6 C 80 % 1025,0 hPa 0,0 mm 1,7 km/h (1 Bft) S-SW 0,00 h 0,0 mm 0,0 UV-I 0 W/m 2,5 C 4,6 km/h (1 Bft)
17.02.2019 00:00 4,7 C 83 % 1025,1 hPa 0,0 mm 1,3 km/h (1 Bft) S-SW 0,00 h 0,0 mm 0,0 UV-I 0 W/m 2,1 C 4,1 km/h (1 Bft)
17.02.2019 01:00 4,5 C 86 % 1024,9 hPa 0,0 mm 1,0 km/h (0 Bft) S-SW 0,00 h 0,0 mm 0,0 UV-I 0 W/m 2,3 C 4,0 km/h (1 Bft)
17.02.2019 02:00 4,3 C 86 % 1024,6 hPa 0,0 mm 1,9 km/h (1 Bft) S-SW 0,00 h 0,0 mm 0,0 UV-I 0 W/m 2,1 C 5,7 km/h (1 Bft)
17.02.2019 03:00 3,8 C 87 % 1024,0 hPa 0,0 mm 2,4 km/h (1 Bft) S-SW 0,00 h 0,0 mm 0,0 UV-I 0 W/m 1,8 C 6,5 km/h (2 Bft)
17.02.2019 04:00 3,5 C 87 % 1023,8 hPa 0,0 mm 0,7 km/h (0 Bft) S-SW 0,00 h 0,0 mm 0,0 UV-I 0 W/m 1,5 C 3,3 km/h (1 Bft)
17.02.2019 05:00 3,0 C 88 % 1023,5 hPa 0,0 mm 1,5 km/h (1 Bft) S-SW 0,00 h 0,0 mm 0,0 UV-I 0 W/m 1,1 C 5,1 km/h (1 Bft)
17.02.2019 06:00 2,6 C 89 % 1023,2 hPa 0,0 mm 1,8 km/h (1 Bft) SW 0,00 h 0,0 mm 0,0 UV-I 0 W/m 1,0 C 4,8 km/h (1 Bft)
17.02.2019 07:00 2,3 C 90 % 1023,1 hPa 0,0 mm 2,6 km/h (1 Bft) S-SW 0,08 h 0,0 mm 0,0 UV-I 7 W/m 0,8 C 5,8 km/h (2 Bft)
17.02.2019 08:00 2,7 C 91 % 1023,1 hPa 0,0 mm 2,2 km/h (1 Bft) SW 1,00 h 0,0 mm 0,2 UV-I 73 W/m 1,3 C 7,0 km/h (2 Bft)
17.02.2019 09:00 4,3 C 89 % 1023,0 hPa 0,0 mm 3,7 km/h (1 Bft) S 1,00 h 0,0 mm 0,4 UV-I 188 W/m 2,7 C 9,8 km/h (2 Bft)
17.02.2019 10:00 7,1 C 81 % 1022,4 hPa 0,0 mm 6,5 km/h (2 Bft) S 1,00 h 0,1 mm 0,9 UV-I 310 W/m 3,9 C 15,3 km/h (3 Bft)
17.02.2019 11:00 10,1 C 68 % 1022,2 hPa 0,0 mm 7,8 km/h (2 Bft) S 1,00 h 0,1 mm 1,5 UV-I 460 W/m 4,3 C 18,2 km/h (3 Bft)
17.02.2019 12:00 13,0 C 55 % 1021,5 hPa 0,0 mm 7,8 km/h (2 Bft) O 1,00 h 0,2 mm 2,2 UV-I 512 W/m 4,3 C 17,0 km/h (3 Bft)
17.02.2019 13:00 15,5 C 47 % 1020,8 hPa 0,0 mm 7,0 km/h (2 Bft) O 1,00 h 0,2 mm 2,3 UV-I 499 W/m 4,2 C 15,7 km/h (3 Bft)
17.02.2019 14:00 17,5 C 40 % 1020,1 hPa 0,0 mm 6,9 km/h (2 Bft) O 1,00 h 0,3 mm 1,5 UV-I 449 W/m 3,6 C 15,5 km/h (3 Bft)
17.02.2019 15:00 17,2 C 40 % 1019,6 hPa 0,0 mm 7,5 km/h (2 Bft) O 1,00 h 0,3 mm 0,3 UV-I 338 W/m 3,4 C 18,3 km/h (3 Bft)
17.02.2019 16:00 15,7 C 43 % 1019,3 hPa 0,0 mm 6,3 km/h (2 Bft) O 1,00 h 0,2 mm 0,3 UV-I 195 W/m 3,0 C 15,4 km/h (3 Bft)
17.02.2019 17:00 14,3 C 47 % 1019,1 hPa 0,0 mm 4,6 km/h (1 Bft) O 0,50 h 0,1 mm 0,0 UV-I 36 W/m 3,2 C 11,1 km/h (2 Bft)
17.02.2019 18:00 12,4 C 52 % 1019,5 hPa 0,0 mm 2,3 km/h (1 Bft) O 0,00 h 0,1 mm 0,0 UV-I 0 W/m 2,9 C 6,7 km/h (2 Bft)
17.02.2019 19:00 10,7 C 55 % 1019,9 hPa 0,0 mm 1,8 km/h (1 Bft) S-SW 0,00 h 0,0 mm 0,0 UV-I 0 W/m 2,0 C 7,0 km/h (2 Bft)
17.02.2019 20:00 9,6 C 57 % 1020,2 hPa 0,0 mm 3,1 km/h (1 Bft) S 0,00 h 0,0 mm 0,0 UV-I 0 W/m 1,6 C 8,5 km/h (2 Bft)
17.02.2019 21:00 9,1 C 58 % 1020,5 hPa 0,0 mm 3,1 km/h (1 Bft) S 0,00 h 0,0 mm 0,0 UV-I 0 W/m 1,2 C 8,9 km/h (2 Bft)
17.02.2019 22:00 8,1 C 60 % 1020,6 hPa 0,0 mm 2,5 km/h (1 Bft) S 0,00 h 0,0 mm 0,0 UV-I 0 W/m 0,8 C 7,0 km/h (2 Bft)
17.02.2019 23:00 7,2 C 64 % 1020,4 hPa 0,0 mm 2,8 km/h (1 Bft) SW 0,00 h 0,0 mm 0,0 UV-I 0 W/m 0,9 C 8,0 km/h (2 Bft)
Min-Datum _ 14.02.19 15.02.19 11.02.19 - 11.02.19 - - - - - 15.02.19 11.02.19
_ Min-Zeit 08:05 14:35 00:00 - 18:40 - - - - - 03:20 18:40
Minimum _ -0,1 C 36 % 1003,4 hPa - 0,0 km/h (0 Bft) - - - - - -1,8 C 0,0 km/h (0 Bft)
Max-Datum _ 17.02.19 11.02.19 13.02.19 11.02.19 11.02.19 - 15.02.19 15.02.19 16.02.19 17.02.19 16.02.19 11.02.19
_ Max-Zeit 14:55 00:40 09:00 00:10 07:45 - 08:30 13:00 12:40 12:15 17:30 00:00
Maximum _ 17,9 C 96 % 1037,3 hPa 1,0 mm 23,6 km/h
NW (4 Bft)
- 0,25 h 0,3 mm 2,7 UV-I 547 W/m 5,0 C 51,1 km/h
NW (7 Bft)
Durchschnitt _ 6,0 C 75 % 1029,0 hPa #3,0 mm 4,3 km/h (1 Bft) S #47:10 h #7,975 mm 1,0 UV-I 224 W/m 1,5 C 10,8 km/h (2 Bft)



© 1998 - 2019 www.pulheimwetter.de